Location: pereira
(4.8150°N, 75.7450°W)
Time: 02:14:46
(UTC-05:00)

ISS - Visible Passes

Search period start: 16 December 2017 00:00
Search period end: 26 December 2017 00:00
Orbit: 402 x 406 km, 51.6° (Epoch: 16 December)

Date Brightness Start Highest point End Pass type
(mag) Time Alt. Az. Time Alt. Az. Time Alt. Az.
17 Dec -0.9 19:44:07 10° NW 19:44:28 12° NW 19:44:28 12° NW visible
18 Dec -3.9 18:51:48 10° NNW 18:55:01 61° NE 18:58:14 10° SE visible
19 Dec -0.2 19:38:00 10° WSW 19:39:03 11° SW 19:40:04 10° SW visible
20 Dec -1.5 18:43:57 10° WNW 18:46:49 28° SW 18:49:41 10° S visible
22 Dec -0.6 05:28:12 10° S 05:30:36 19° SE 05:32:59 10° ENE visible
24 Dec -3.8 05:19:02 10° SSW 05:22:18 80° SE 05:25:33 10° NE visible
25 Dec -1.6 04:27:13 10° S 04:30:01 26° SE 04:32:49 10° ENE visible
